Time,TemperatureF,DewpointF,PressureIn,WindDirection,WindDirectionDegrees,WindSpeedMPH,WindSpeedGustMPH,Humidity,HourlyPrecipIn,Conditions,Clouds,dailyrainin,SolarRadiationWatts/m^2,SoftwareType,DateUTC
2013-10-18 00:02:00,35.0,27.0,-100.00,WNW,303,8.0,23.0,72,0.00,,,0.15,0.000000,,2013-10-18 06:02:00,
2013-10-18 00:12:00,35.0,27.0,-100.00,WNW,303,8.0,23.0,72,0.00,,,0.15,0.000000,,2013-10-18 06:12:00,
2013-10-18 00:21:00,35.0,27.0,-100.00,WNW,303,8.0,23.0,72,0.00,,,0.15,0.000000,,2013-10-18 06:21:00,
2013-10-18 00:52:00,35.0,26.0,-100.00,WNW,290,10.0,16.0,68,0.00,,,0.15,0.000000,,2013-10-18 06:52:00,
2013-10-18 01:02:00,35.0,26.0,-100.00,WNW,290,10.0,16.0,68,0.00,,,0.15,0.000000,,2013-10-18 07:02:00,
2013-10-18 01:11:00,35.0,26.0,-100.00,WNW,290,10.0,16.0,68,0.00,,,0.15,0.000000,,2013-10-18 07:11:00,
2013-10-18 01:21:00,35.0,26.0,-100.00,WNW,290,10.0,16.0,68,0.00,,,0.15,0.000000,,2013-10-18 07:21:00,
2013-10-18 01:52:00,35.0,23.0,-100.00,WNW,287,13.0,18.0,62,0.00,,,0.15,0.000000,,2013-10-18 07:52:00,
2013-10-18 02:02:00,35.0,23.0,-100.00,WNW,287,13.0,18.0,62,0.00,,,0.15,0.000000,,2013-10-18 08:02:00,
2013-10-18 02:11:00,35.0,23.0,-100.00,WNW,287,13.0,18.0,62,0.00,,,0.15,0.000000,,2013-10-18 08:11:00,
2013-10-18 02:21:00,35.0,23.0,-100.00,WNW,287,13.0,18.0,62,0.00,,,0.15,0.000000,,2013-10-18 08:21:00,
2013-10-18 02:52:00,34.0,23.0,-100.00,WNW,286,10.0,17.0,63,0.00,,,0.15,0.000000,,2013-10-18 08:52:00,
2013-10-18 03:02:00,34.0,23.0,-100.00,WNW,286,10.0,17.0,63,0.00,,,0.15,0.000000,,2013-10-18 09:02:00,
2013-10-18 03:11:00,34.0,23.0,-100.00,WNW,286,10.0,17.0,63,0.00,,,0.15,0.000000,,2013-10-18 09:11:00,
2013-10-18 03:21:00,34.0,23.0,-100.00,WNW,286,10.0,17.0,63,0.00,,,0.15,0.000000,,2013-10-18 09:21:00,
2013-10-18 03:22:00,34.0,21.0,-100.00,WNW,284,14.0,21.0,58,0.00,,,0.15,0.000000,,2013-10-18 09:22:00,
2013-10-18 03:53:00,34.0,21.0,-100.00,WNW,284,14.0,21.0,58,0.00,,,0.15,0.000000,,2013-10-18 09:53:00,
2013-10-18 04:03:00,34.0,21.0,-100.00,WNW,284,14.0,21.0,58,0.00,,,0.15,0.000000,,2013-10-18 10:03:00,
2013-10-18 04:12:00,34.0,21.0,-100.00,WNW,284,14.0,21.0,58,0.00,,,0.15,0.000000,,2013-10-18 10:12:00,
2013-10-18 04:22:00,34.0,21.0,-100.00,WNW,292,12.0,20.0,59,0.00,,,0.15,0.000000,,2013-10-18 10:22:00,
2013-10-18 04:53:00,34.0,21.0,-100.00,WNW,292,12.0,20.0,59,0.00,,,0.15,0.000000,,2013-10-18 10:53:00,
2013-10-18 05:02:00,34.0,21.0,-100.00,WNW,292,12.0,20.0,59,0.00,,,0.15,0.000000,,2013-10-18 11:02:00,
2013-10-18 05:12:00,34.0,21.0,-100.00,WNW,292,12.0,20.0,59,0.00,,,0.15,0.000000,,2013-10-18 11:12:00,
2013-10-18 05:52:00,34.0,20.0,-100.00,WNW,287,11.0,15.0,57,0.00,,,0.15,0.000000,,2013-10-18 11:52:00,
2013-10-18 06:02:00,34.0,20.0,-100.00,WNW,287,11.0,15.0,57,0.00,,,0.15,0.000000,,2013-10-18 12:02:00,
2013-10-18 06:12:00,34.0,20.0,-100.00,WNW,287,11.0,15.0,57,0.00,,,0.15,0.000000,,2013-10-18 12:12:00,
2013-10-18 06:21:00,34.0,20.0,-100.00,WNW,287,11.0,15.0,57,0.00,,,0.15,0.000000,,2013-10-18 12:21:00,
2013-10-18 06:52:00,36.0,20.0,-100.00,WNW,284,18.0,24.0,52,0.00,,,0.15,0.000000,,2013-10-18 12:52:00,
2013-10-18 07:01:00,36.0,20.0,-100.00,WNW,284,18.0,24.0,52,0.00,,,0.15,0.000000,,2013-10-18 13:01:00,
2013-10-18 07:11:00,36.0,20.0,-100.00,WNW,284,18.0,24.0,52,0.00,,,0.15,0.000000,,2013-10-18 13:11:00,
2013-10-18 07:21:00,36.0,20.0,-100.00,WNW,284,18.0,24.0,52,0.00,,,0.15,0.000000,,2013-10-18 13:21:00,
2013-10-18 07:52:00,34.0,20.0,-100.00,West,262,15.0,21.0,55,0.00,,,0.15,0.000000,,2013-10-18 13:52:00,
2013-10-18 08:02:00,34.0,20.0,-100.00,West,262,15.0,21.0,55,0.00,,,0.15,0.000000,,2013-10-18 14:02:00,
2013-10-18 08:11:00,34.0,20.0,-100.00,West,262,15.0,21.0,55,0.00,,,0.15,0.000000,,2013-10-18 14:11:00,
2013-10-18 08:21:00,34.0,20.0,-100.00,West,262,15.0,21.0,55,0.00,,,0.15,0.000000,,2013-10-18 14:21:00,
2013-10-18 08:52:00,36.0,18.0,-100.00,WSW,252,14.0,19.0,48,0.00,,,0.15,25.000000,,2013-10-18 14:52:00,
2013-10-18 09:02:00,36.0,18.0,-100.00,WSW,252,14.0,19.0,48,0.00,,,0.15,25.000000,,2013-10-18 15:02:00,
2013-10-18 09:11:00,36.0,18.0,-100.00,WSW,252,14.0,19.0,48,0.00,,,0.15,25.000000,,2013-10-18 15:11:00,
2013-10-18 09:21:00,36.0,18.0,-100.00,WSW,252,14.0,19.0,48,0.00,,,0.15,25.000000,,2013-10-18 15:21:00,
2013-10-18 09:22:00,40.0,21.0,-100.00,West,262,16.0,20.0,46,0.00,,,-99.99,237.000000,,2013-10-18 15:22:00,
2013-10-18 09:54:00,40.0,21.0,-100.00,West,262,16.0,20.0,46,0.00,,,-99.99,237.000000,,2013-10-18 15:54:00,
2013-10-18 10:04:00,40.0,21.0,-100.00,West,262,16.0,20.0,46,0.00,,,-99.99,237.000000,,2013-10-18 16:04:00,
2013-10-18 10:12:00,40.0,21.0,-100.00,West,262,16.0,20.0,46,0.00,,,-99.99,237.000000,,2013-10-18 16:12:00,
2013-10-18 10:22:00,40.0,20.0,-100.00,West,269,13.0,19.0,45,0.00,,,0.08,404.000000,,2013-10-18 16:22:00,
2013-10-18 10:53:00,40.0,20.0,-100.00,West,269,13.0,19.0,45,0.00,,,0.08,404.000000,,2013-10-18 16:53:00,
2013-10-18 11:03:00,40.0,20.0,-100.00,West,269,13.0,19.0,45,0.00,,,0.08,404.000000,,2013-10-18 17:03:00,
2013-10-18 11:12:00,40.0,20.0,-100.00,West,269,13.0,19.0,45,0.00,,,0.08,404.000000,,2013-10-18 17:12:00,
2013-10-18 11:52:00,43.0,23.0,-100.00,West,265,11.0,17.0,44,0.00,,,0.06,592.000000,,2013-10-18 17:52:00,
2013-10-18 12:02:00,43.0,23.0,-100.00,West,265,11.0,17.0,44,0.00,,,0.06,592.000000,,2013-10-18 18:02:00,
2013-10-18 12:12:00,43.0,23.0,-100.00,West,265,11.0,17.0,44,0.00,,,0.06,592.000000,,2013-10-18 18:12:00,
2013-10-18 12:21:00,43.0,23.0,-100.00,West,265,11.0,17.0,44,0.00,,,0.06,592.000000,,2013-10-18 18:21:00,
2013-10-18 12:52:00,46.0,22.0,-100.00,WNW,287,7.0,13.0,39,0.00,,,0.06,718.000000,,2013-10-18 18:52:00,
2013-10-18 13:01:00,46.0,22.0,-100.00,WNW,287,7.0,13.0,39,0.00,,,0.06,718.000000,,2013-10-18 19:01:00,
2013-10-18 13:12:00,46.0,22.0,-100.00,WNW,287,7.0,13.0,39,0.00,,,0.06,718.000000,,2013-10-18 19:12:00,
2013-10-18 13:21:00,46.0,22.0,-100.00,WNW,287,7.0,13.0,39,0.00,,,0.06,718.000000,,2013-10-18 19:21:00,
2013-10-18 13:22:00,50.0,23.0,-100.00,NW,307,6.0,14.0,35,0.00,,,0.06,760.000000,,2013-10-18 19:22:00,
2013-10-18 13:52:00,50.0,23.0,-100.00,NW,307,6.0,14.0,35,0.00,,,0.06,760.000000,,2013-10-18 19:52:00,
2013-10-18 14:02:00,50.0,23.0,-100.00,NW,307,6.0,14.0,35,0.00,,,0.06,760.000000,,2013-10-18 20:02:00,
2013-10-18 14:11:00,50.0,23.0,-100.00,NW,307,6.0,14.0,35,0.00,,,0.06,760.000000,,2013-10-18 20:11:00,
2013-10-18 14:52:00,55.0,23.0,-100.00,West,270,1.0,7.0,28,0.00,,,0.06,616.000000,,2013-10-18 20:52:00,
2013-10-18 15:02:00,55.0,23.0,-100.00,West,270,1.0,7.0,28,0.00,,,0.06,616.000000,,2013-10-18 21:02:00,
2013-10-18 15:11:00,55.0,23.0,-100.00,West,270,1.0,7.0,28,0.00,,,0.06,616.000000,,2013-10-18 21:11:00,
2013-10-18 15:21:00,55.0,23.0,-100.00,West,270,1.0,7.0,28,0.00,,,0.06,616.000000,,2013-10-18 21:21:00,
2013-10-18 15:22:00,51.0,23.0,-100.00,West,271,7.0,13.0,33,0.00,,,0.06,663.000000,,2013-10-18 21:22:00,
2013-10-18 15:54:00,51.0,23.0,-100.00,West,271,7.0,13.0,33,0.00,,,0.06,663.000000,,2013-10-18 21:54:00,
2013-10-18 16:04:00,51.0,23.0,-100.00,West,271,7.0,13.0,33,0.00,,,0.06,663.000000,,2013-10-18 22:04:00,
2013-10-18 16:13:00,51.0,23.0,-100.00,West,271,7.0,13.0,33,0.00,,,0.06,663.000000,,2013-10-18 22:13:00,
2013-10-18 16:22:00,52.0,25.0,-100.00,SE,141,4.0,11.0,35,0.00,,,0.00,521.000000,,2013-10-18 22:22:00,
2013-10-18 16:54:00,52.0,25.0,-100.00,SE,141,4.0,11.0,35,0.00,,,0.00,521.000000,,2013-10-18 22:54:00,
2013-10-18 17:03:00,52.0,25.0,-100.00,SE,141,4.0,11.0,35,0.00,,,0.00,521.000000,,2013-10-18 23:03:00,
2013-10-18 17:12:00,52.0,25.0,-100.00,SE,141,4.0,11.0,35,0.00,,,0.00,521.000000,,2013-10-18 23:12:00,
2013-10-18 17:53:00,49.0,23.0,-100.00,SSE,147,4.0,8.0,36,0.00,,,0.00,324.000000,,2013-10-18 23:53:00,
2013-10-18 18:02:00,49.0,23.0,-100.00,SSE,147,4.0,8.0,36,0.00,,,0.00,324.000000,,2013-10-19 00:02:00,
2013-10-18 18:11:00,49.0,23.0,-100.00,SSE,147,4.0,8.0,36,0.00,,,0.00,324.000000,,2013-10-19 00:11:00,
2013-10-18 18:21:00,49.0,23.0,-100.00,SSE,147,4.0,8.0,36,0.00,,,0.00,324.000000,,2013-10-19 00:21:00,
2013-10-18 18:52:00,43.0,22.0,-100.00,SSW,200,3.0,5.0,43,0.00,,,0.00,86.000000,,2013-10-19 00:52:00,
2013-10-18 19:02:00,43.0,22.0,-100.00,SSW,200,3.0,5.0,43,0.00,,,0.00,86.000000,,2013-10-19 01:02:00,
2013-10-18 19:11:00,43.0,22.0,-100.00,SSW,200,3.0,5.0,43,0.00,,,0.00,86.000000,,2013-10-19 01:11:00,
2013-10-18 19:21:00,43.0,22.0,-100.00,SSW,200,3.0,5.0,43,0.00,,,0.00,86.000000,,2013-10-19 01:21:00,
2013-10-18 19:53:00,38.0,25.0,-100.00,SW,226,4.0,6.0,58,0.00,,,0.00,1.000000,,2013-10-19 01:53:00,
2013-10-18 20:02:00,38.0,25.0,-100.00,SW,226,4.0,6.0,58,0.00,,,0.00,1.000000,,2013-10-19 02:02:00,
2013-10-18 20:12:00,38.0,25.0,-100.00,SW,226,4.0,6.0,58,0.00,,,0.00,1.000000,,2013-10-19 02:12:00,
2013-10-18 20:21:00,38.0,25.0,-100.00,SW,226,4.0,6.0,58,0.00,,,0.00,1.000000,,2013-10-19 02:21:00,
2013-10-18 20:22:00,42.0,20.0,-100.00,South,185,2.0,6.0,41,0.00,,,0.00,0.000000,,2013-10-19 02:22:00,
2013-10-18 20:52:00,42.0,20.0,-100.00,South,185,2.0,6.0,41,0.00,,,0.00,0.000000,,2013-10-19 02:52:00,
2013-10-18 21:02:00,42.0,20.0,-100.00,South,185,2.0,6.0,41,0.00,,,0.00,0.000000,,2013-10-19 03:02:00,
2013-10-18 21:11:00,42.0,20.0,-100.00,South,185,2.0,6.0,41,0.00,,,0.00,0.000000,,2013-10-19 03:11:00,
2013-10-18 21:22:00,43.0,22.0,-100.00,WNW,282,6.0,10.0,42,0.00,,,0.00,0.000000,,2013-10-19 03:22:00,
2013-10-18 21:55:00,43.0,22.0,-100.00,WNW,282,6.0,10.0,42,0.00,,,0.00,0.000000,,2013-10-19 03:55:00,
2013-10-18 22:05:00,43.0,22.0,-100.00,WNW,282,6.0,10.0,42,0.00,,,0.00,0.000000,,2013-10-19 04:05:00,
2013-10-18 22:13:00,43.0,22.0,-100.00,WNW,282,6.0,10.0,42,0.00,,,0.00,0.000000,,2013-10-19 04:13:00,
2013-10-18 22:22:00,42.0,22.0,-100.00,NNW,330,3.0,10.0,45,0.00,,,0.00,0.000000,,2013-10-19 04:22:00,
2013-10-18 22:54:00,42.0,22.0,-100.00,NNW,330,3.0,10.0,45,0.00,,,0.00,0.000000,,2013-10-19 04:54:00,
2013-10-18 23:04:00,42.0,22.0,-100.00,NNW,330,3.0,10.0,45,0.00,,,0.00,0.000000,,2013-10-19 05:04:00,
2013-10-18 23:13:00,42.0,22.0,-100.00,NNW,330,3.0,10.0,45,0.00,,,0.00,0.000000,,2013-10-19 05:13:00,
2013-10-18 23:52:00,41.0,21.0,-100.00,WNW,299,3.0,5.0,45,0.00,,,0.00,0.000000,,2013-10-19 05:52:00,